Location: Peñalba de Ávila
(40.7727°N, 4.7460°W)
Time: 22:35:23
(UTC+00:00)

Daily predictions for brighter satellites

Satellite Brightness Start Highest point End
(mag) Time Altitude Azimuth Time Altitude Azimuth Time Altitude Azimuth
USA 234 3.4 18:09:49 10° ESE 18:16:16 64° NE 18:22:45 10° NW
Cosmos 773 Rocket 4.5 18:15:59 10° S 18:20:50 39° ESE 18:25:44 10° NE
Cosmos 2237 Rocket 2.6 18:16:28 10° N 18:21:50 42° ENE 18:27:12 10° SE
COSMOS 2428 2.9 18:16:39 10° NNW 18:22:24 82° WSW 18:28:07 10° SSE
Cosmos 2208 Rocket 4.4 18:21:55 10° S 18:26:46 41° ESE 18:31:43 10° NNE
ARIANE 5 R/B 3.0 18:21:42 10° S 18:26:47 68° WSW 18:31:50 10° NNW
SJ-12 4.4 18:25:06 10° S 18:28:50 60° WSW 18:32:36 10° NNW
Okean 1 Rocket 3.0 18:25:51 10° N 18:30:14 73° E 18:34:33 10° SSE
SAR-Lupe-4 3.5 18:28:02 10° SSE 18:31:35 73° ENE 18:35:08 10° N
Cosmos 44 Rocket 3.3 18:30:48 10° SSW 18:35:38 72° ESE 18:40:41 10° NE
Cosmos 1346 Rocket 4.0 18:33:49 10° SE 18:36:17 18° E 18:38:45 10° NE
Cosmos 1315 Rocket 4.3 18:33:32 10° NNW 18:37:06 39° W 18:40:39 10° SSW
Cosmos 2221 Rocket 3.8 18:33:13 10° S 18:37:40 79° W 18:42:11 10° N
Okean 2 Rocket 3.3 18:34:01 10° N 18:38:24 77° W 18:42:44 10° S
Cosmos 1025 Rocket 3.8 18:34:30 10° SSW 18:38:44 56° W 18:43:01 10° N
Cosmos 2061 Rocket 4.1 18:32:40 10° N 18:39:03 85° W 18:45:20 10° S
Cosmos 1602 3.9 18:37:37 10° SSE 18:39:56 24° E 18:42:15 10° NE
CZ-4C R/B 3.7 18:36:56 10° W 18:40:30 25° NW 18:44:48 10° NNE
Cosmos 836 Rocket 4.5 18:37:04 10° SSW 18:42:18 78° ESE 18:47:37 10° NNE
Cosmos 2227 Rocket 2.5 18:37:33 10° S 18:42:53 46° ESE 18:48:17 10° NE
Delta 2 Rocket 4.0 18:43:08 10° WSW 18:45:50 29° S 18:48:18 12° ESE
SL-16 R/B 3.4 18:43:55 10° N 18:48:09 21° NE 18:50:50 15° E
Helios 1A Rocket 3.7 18:49:53 18° ENE 18:50:35 20° E 18:53:02 10° SE
NOSS 3-4 (A) 4.0 18:45:13 10° NNW 18:51:56 53° NE 18:59:46 10° SE
NOSS 3-4 (C) 4.1 18:45:30 10° NNW 18:52:13 53° NE 19:00:03 10° SE
Resurs 1-3 3.7 18:50:19 10° S 18:54:35 78° WSW 18:58:55 10° NNW
Sich 1 Rocket 4.2 18:50:43 10° NNW 18:55:14 63° W 18:59:43 10° S
Aureole 3 Rocket 2.3 18:51:45 10° N 18:55:17 86° W 18:58:19 10° S
Cosmos 2150 Rocket 4.3 18:51:12 10° N 18:56:03 40° ENE 19:00:52 10° SE
Cosmos 2298 Rocket 4.4 18:55:06 10° N 19:00:08 42° ENE 19:05:08 10° SE
Resurs 01 Rocket 1.7 18:58:12 10° SSE 19:02:27 53° ENE 19:06:45 10° N
BREEZE-M DEB (TANK) 3.4 19:00:50 10° SSW 19:04:01 47° SE 19:11:13 15° ENE
Cosmos 1782 3.1 19:05:28 10° NNE 19:08:45 33° ENE 19:09:32 29° ESE
Gbstr 26 Del rocket 4.2 19:02:56 10° SW 19:09:22 66° SE 19:15:03 19° ENE
CARTOSAT-1 3.4 19:08:05 10° SSE 19:12:17 87° WSW 19:16:31 10° NNW
Atlas Centaur 2 3.9 19:08:34 10° WSW 19:15:35 35° S 19:20:56 14° SE
CSL-04 Rocket 4.3 19:17:14 27° E 19:18:27 30° ENE 19:22:59 10° N
ARIANE 6 FM1 Upper Stage 4.3 19:19:16 10° N 19:21:31 18° NNE 19:21:31 18° NNE
Cosmos 2297 Rocket 3.8 19:22:30 10° WSW 19:27:32 33° WNW 19:32:39 10° N
BREEZE-M DEB (TANK) 4.3 19:23:30 10° NW 19:27:46 73° NNE 19:36:56 21° ESE
Radarsat Rocket 4.5 19:22:25 10° S 19:28:10 62° WSW 19:34:20 10° NNW
Cosmos 2058 2.7 19:25:10 10° S 19:28:57 54° E 19:29:54 42° NE
SJ-6B 2.3 19:28:11 28° SSE 19:29:52 75° ENE 19:33:18 10° N
SPOT 5 3.4 19:31:23 36° ENE 19:31:23 36° ENE 19:35:56 10° N
Tiangong -2.2 19:29:26 10° W 19:32:34 76° NNW 19:32:34 76° NNW
Tsikada Rocket 4.2 19:27:06 10° SSE 19:32:48 42° E 19:38:32 10° NNE
SeaSat 1 4.3 19:29:22 10° S 19:33:42 32° WSW 19:38:04 10° NW
Cosmos 2084 3.5 19:30:59 10° SSW 19:35:02 51° ESE 19:35:02 51° ESE
IRAS Rocket 4.2 19:32:15 10° SSE 19:37:51 86° ENE 19:43:30 10° NNW
Cosmos 2228 3.3 19:38:54 10° NNW 19:43:03 64° W 19:47:12 10° S
Cosmos 2219 3.3 19:38:23 10° S 19:43:56 54° ESE 19:45:34 41° ENE
Cosmos 1544 Rocket 3.6 19:42:19 10° N 19:46:04 57° NE 19:46:04 57° NE
BREEZE M DEB (TANK) 4.3 19:27:50 10° SSW 19:46:57 51° SSE 19:49:17 39° E
Cosmos 1975 Rocket 4.3 19:45:35 10° SSW 19:49:41 40° WNW 19:53:47 10° N
Cosmos 2263 Rocket 2.2 19:48:02 10° SSW 19:53:42 79° WNW 19:58:28 15° NNE
Orbus 7S? 3.6 19:50:40 10° NW 19:56:52 72° NNE 19:56:52 72° NNE
Cosmos 2034 Rocket 3.9 19:57:16 10° N 20:03:28 85° W 20:09:41 10° S
Cosmos 2237 Rocket 4.2 20:00:55 10° NW 20:05:38 27° WSW 20:10:21 10° SSW
Cosmos 1634 Rocket 4.1 20:03:40 10° N 20:09:11 56° NE 20:09:11 56° NE
Cosmos 2082 3.7 20:06:20 10° SSW 20:11:25 68° SSE 20:11:25 68° SSE
Cosmos 2344 3.8 20:11:38 10° SW 20:19:35 62° NW 20:24:32 21° NNE
Cosmos 2227 Rocket 4.1 20:22:25 10° WSW 20:27:07 26° NW 20:31:51 10° N
SL-16 R/B 2.5 20:27:05 10° NNW 20:32:41 62° WSW 20:32:45 62° WSW
Atlas Centaur 2 4.4 20:58:24 10° WSW 21:02:51 19° SSW 21:02:51 19° SSW
